When you browse on this site, cookies collect data to enhance your experience and personalize the content and advertising you see.
Visit our Privacy Policy to learn more. By continuing to use the site, you agree to this use of cookies and data.
  • In Sweden
  • List of Countries
  • For 7 days
  • Water Temperature
  • Weather Map
  • Weather Widgets
  • user-avatar
    Login

    Hourly Weather Burshtyn

    Today, 31 May, Sunday

    Time Temperature Precipitation Wind Pressure Humidity
    00:00 +8°C° 2.6 mm 10 mps 730 mmHg 95%
    01:00 +8°C° 2.6 mm 10 mps 729 mmHg 95%
    02:00 +7°C° 0 mm 10 mps 729 mmHg 94%
    03:00 +7°C° 3 mm 10 mps 729 mmHg 94%
    04:00 +7°C° 3 mm 10 mps 729 mmHg 94%
    05:00 +7°C° 3 mm 10 mps 728 mmHg 95%
    06:00 +7°C° 0.9 mm 9 mps 729 mmHg 95%
    07:00 +9°C° 0.9 mm 8 mps 729 mmHg 95%
    08:00 +9°C° 0.9 mm 7 mps 729 mmHg 95%
    09:00 +9°C° 0.3 mm 7 mps 730 mmHg 94%
    10:00 +10°C° 0.3 mm 6 mps 730 mmHg 94%
    11:00 +10°C° 0.3 mm 5 mps 731 mmHg 94%
    12:00 +12°C° 0.2 mm 5 mps 731 mmHg 92%
    13:00 +12°C° 0.2 mm 5 mps 732 mmHg 91%
    14:00 +13°C° 0.2 mm 5 mps 732 mmHg 89%
    15:00 +13°C° 0.4 mm 5 mps 732 mmHg 88%
    16:00 +14°C° 0.4 mm 5 mps 732 mmHg 86%
    17:00 +14°C° 0.4 mm 5 mps 733 mmHg 85%
    18:00 +14°C° 0.5 mm 4 mps 733 mmHg 88%
    19:00 +13°C° 0.5 mm 4 mps 733 mmHg 91%
    20:00 +12°C° 0.5 mm 4 mps 734 mmHg 94%
    21:00 +12°C° 0.6 mm 4 mps 734 mmHg 95%
    22:00 +12°C° 0.6 mm 4 mps 734 mmHg 96%
    23:00 +12°C° 0.6 mm 5 mps 735 mmHg 97%

    Tomorrow, 1 June, Monday

    Time Temperature Precipitation Wind Pressure Humidity
    00:00 +12°C° 0.3 mm 5 mps 735 mmHg 96%
    01:00 +12°C° 0.3 mm 5 mps 735 mmHg 96%
    02:00 +10°C° 0.3 mm 5 mps 735 mmHg 96%
    03:00 +10°C° 0.1 mm 5 mps 735 mmHg 95%
    04:00 +9°C° 0.1 mm 5 mps 735 mmHg 94%
    05:00 +8°C° 0.1 mm 6 mps 735 mmHg 93%
    06:00 +9°C° 0 mm 6 mps 736 mmHg 93%
    07:00 +9°C° 0 mm 5 mps 736 mmHg 92%
    08:00 +9°C° 0 mm 5 mps 737 mmHg 92%
    09:00 +11°C° 0.2 mm 6 mps 737 mmHg 85%
    10:00 +13°C° 0.2 mm 6 mps 737 mmHg 79%
    11:00 +14°C° 0.2 mm 6 mps 737 mmHg 73%
    12:00 +14°C° 0.2 mm 6 mps 737 mmHg 72%
    13:00 +14°C° 0.2 mm 6 mps 737 mmHg 71%
    14:00 +14°C° 0.2 mm 6 mps 737 mmHg 70%
    15:00 +14°C° 0.2 mm 6 mps 737 mmHg 72%
    16:00 +13°C° 0.2 mm 6 mps 737 mmHg 73%
    17:00 +13°C° 0.2 mm 6 mps 737 mmHg 75%
    18:00 +10°C° 0.1 mm 5 mps 737 mmHg 78%
    19:00 +10°C° 0.1 mm 4 mps 737 mmHg 81%
    20:00 +8°C° 0.1 mm 4 mps 737 mmHg 84%
    21:00 +8°C° 0 mm 3 mps 737 mmHg 87%
    22:00 +7°C° 0 mm 3 mps 737 mmHg 89%
    23:00 +5°C° 0 mm 3 mps 737 mmHg 92%

    Day after tomorrow, 2 June, Tuesday

    Time Temperature Precipitation Wind Pressure Humidity
    00:00 +4°C° 0 mm 3 mps 737 mmHg 93%
    01:00 +4°C° 0 mm 3 mps 737 mmHg 94%
    02:00 +3°C° 0 mm 3 mps 736 mmHg 94%
    03:00 +3°C° 0 mm 4 mps 736 mmHg 94%
    04:00 +3°C° 0 mm 4 mps 736 mmHg 94%
    05:00 +3°C° 0 mm 4 mps 735 mmHg 94%
    06:00 +5°C° 0 mm 5 mps 735 mmHg 89%
    07:00 +7°C° 0 mm 6 mps 735 mmHg 84%
    08:00 +8°C° 0 mm 7 mps 735 mmHg 78%
    09:00 +9°C° 0.1 mm 7 mps 734 mmHg 76%
    10:00 +10°C° 0.1 mm 8 mps 734 mmHg 74%
    11:00 +11°C° 0.1 mm 8 mps 734 mmHg 72%
    12:00 +10°C° 0.5 mm 8 mps 733 mmHg 76%
    13:00 +10°C° 0.5 mm 7 mps 733 mmHg 80%
    14:00 +10°C° 0.5 mm 7 mps 733 mmHg 84%
    15:00 +9°C° 0.5 mm 7 mps 732 mmHg 87%
    16:00 +9°C° 0.5 mm 7 mps 732 mmHg 90%
    17:00 +8°C° 0.5 mm 7 mps 732 mmHg 93%
    18:00 +8°C° 0.7 mm 7 mps 731 mmHg 93%
    19:00 +8°C° 0.7 mm 7 mps 731 mmHg 94%
    20:00 +6°C° 0.7 mm 7 mps 731 mmHg 95%
    21:00 +6°C° 0.6 mm 7 mps 731 mmHg 95%
    22:00 +6°C° 0.6 mm 7 mps 731 mmHg 96%
    23:00 +8°C° 0.6 mm 6 mps 731 mmHg 96%

    3 June, Wednesday

    Time Temperature Precipitation Wind Pressure Humidity
    00:00 +7°C° 0.5 mm 6 mps 731 mmHg 96%
    01:00 +7°C° 0.5 mm 5 mps 731 mmHg 97%
    02:00 +7°C° 0.5 mm 5 mps 730 mmHg 97%
    03:00 +7°C° 0.8 mm 5 mps 730 mmHg 97%
    04:00 +7°C° 0.8 mm 5 mps 730 mmHg 97%
    05:00 +7°C° 0.8 mm 5 mps 730 mmHg 97%
    06:00 +8°C° 0.7 mm 5 mps 731 mmHg 97%
    07:00 +8°C° 0.7 mm 4 mps 731 mmHg 96%
    08:00 +8°C° 0.7 mm 4 mps 731 mmHg 96%
    09:00 +10°C° 0.3 mm 4 mps 731 mmHg 94%
    10:00 +9°C° 0.3 mm 5 mps 731 mmHg 92%
    11:00 +10°C° 0.3 mm 5 mps 732 mmHg 90%
    12:00 +10°C° 0.4 mm 5 mps 732 mmHg 90%
    13:00 +10°C° 0.4 mm 6 mps 731 mmHg 89%
    14:00 +10°C° 0.4 mm 6 mps 731 mmHg 89%
    15:00 +11°C° 0.1 mm 6 mps 731 mmHg 86%
    16:00 +12°C° 0.1 mm 5 mps 731 mmHg 84%
    17:00 +13°C° 0.1 mm 5 mps 731 mmHg 82%
    18:00 +12°C° 0 mm 4 mps 732 mmHg 85%
    19:00 +11°C° 0 mm 3 mps 732 mmHg 89%
    20:00 +10°C° 0 mm 2 mps 732 mmHg 92%
    21:00 +9°C° 0 mm 2 mps 732 mmHg 92%
    22:00 +9°C° 0 mm 2 mps 732 mmHg 92%
    23:00 +8°C° 0 mm 2 mps 733 mmHg 92%

    4 June, Thursday

    Time Temperature Precipitation Wind Pressure Humidity
    00:00 +8°C° 0 mm 2 mps 732 mmHg 91%
    01:00 +8°C° 0 mm 2 mps 732 mmHg 91%
    02:00 +9°C° 0 mm 1 mps 732 mmHg 90%
    03:00 +9°C° 0 mm 1 mps 732 mmHg 89%
    04:00 +10°C° 0 mm 1 mps 732 mmHg 88%
    05:00 +10°C° 0 mm 1 mps 732 mmHg 88%
    06:00 +10°C° 0 mm 2 mps 732 mmHg 85%
    07:00 +13°C° 0 mm 2 mps 732 mmHg 82%
    08:00 +14°C° 0 mm 2 mps 732 mmHg 80%
    09:00 +14°C° 0.6 mm 3 mps 732 mmHg 78%
    10:00 +16°C° 0.6 mm 3 mps 732 mmHg 77%
    11:00 +17°C° 0.6 mm 4 mps 732 mmHg 75%
    12:00 +18°C° 0.5 mm 4 mps 732 mmHg 72%
    13:00 +19°C° 0.5 mm 4 mps 731 mmHg 68%
    14:00 +20°C° 0.5 mm 4 mps 731 mmHg 65%
    15:00 +20°C° 0.1 mm 4 mps 731 mmHg 66%
    16:00 +20°C° 0.1 mm 3 mps 731 mmHg 68%
    17:00 +20°C° 0.1 mm 3 mps 731 mmHg 69%
    18:00 +19°C° 0.1 mm 2 mps 730 mmHg 73%
    19:00 +17°C° 0.1 mm 2 mps 730 mmHg 77%
    20:00 +16°C° 0.1 mm 1 mps 730 mmHg 80%
    21:00 +15°C° 0 mm 2 mps 730 mmHg 82%
    22:00 +14°C° 0 mm 2 mps 729 mmHg 84%
    23:00 +13°C° 0 mm 2 mps 729 mmHg 86%

    5 June, Friday

    Time Temperature Precipitation Wind Pressure Humidity
    00:00 +13°C° 0.2 mm 2 mps 729 mmHg 88%
    01:00 +12°C° 0.2 mm 3 mps 728 mmHg 89%
    02:00 +12°C° 0.2 mm 3 mps 727 mmHg 90%
    03:00 +13°C° 1.8 mm 3 mps 727 mmHg 91%
    04:00 +13°C° 1.8 mm 4 mps 727 mmHg 93%
    05:00 +13°C° 1.8 mm 5 mps 727 mmHg 94%
    06:00 +14°C° 0.3 mm 6 mps 727 mmHg 92%
    07:00 +14°C° 0.3 mm 7 mps 728 mmHg 89%
    08:00 +15°C° 0.3 mm 8 mps 729 mmHg 87%
    09:00 +15°C° 0 mm 8 mps 729 mmHg 81%
    10:00 +16°C° 0 mm 8 mps 730 mmHg 75%
    11:00 +17°C° 0 mm 8 mps 731 mmHg 69%
    12:00 +17°C° 0 mm 8 mps 731 mmHg 70%
    13:00 +17°C° 0 mm 7 mps 731 mmHg 71%
    14:00 +19°C° 0 mm 6 mps 732 mmHg 71%
    15:00 +19°C° 0.2 mm 5 mps 732 mmHg 73%
    16:00 +19°C° 0.2 mm 4 mps 732 mmHg 75%
    17:00 +19°C° 0.2 mm 3 mps 732 mmHg 77%
    18:00 +18°C° 0.1 mm 3 mps 732 mmHg 80%
    19:00 +16°C° 0.1 mm 3 mps 732 mmHg 83%
    20:00 +15°C° 0.1 mm 2 mps 732 mmHg 86%
    21:00 +14°C° 0 mm 2 mps 733 mmHg 87%
    22:00 +13°C° 0 mm 2 mps 733 mmHg 88%
    23:00 +12°C° 0 mm 1 mps 734 mmHg 89%
    Show more